Terminal Aerodrome Forecast
Issued by NWS

Home | Current Version | Previous Version | Text Only | Print | Product List | Glossary On
Versions: 1 2 3 4 5 6 7 8 9 10 11 12
000
FTUS44 KLZK 041720
TAFHRO
TAF
KHRO 041720Z 0418/0518 16008KT P6SM FEW040 SCT250
     FM050000 15003KT P6SM FEW250
     FM051600 16008KT P6SM FEW040=

USA.gov is the U.S. government's official web portal to all federal, state and local government web resources and services.